Location: Eaton Estates
(41.3089°N, 82.0057°W)
Time: 12:55:38
(UTC+00:00)

DOVE 4 - Visible Passes

Search period start: 02 April 2023 00:00
Search period end: 12 April 2023 00:00
Orbit: 586 x 791 km, 97.8° (Epoch: 02 April)

Date Brightness Start Highest point End Pass type
(mag) Time Alt. Az. Time Alt. Az. Time Alt. Az.
06 Apr ? 04:40:00 10° N 04:40:03 10° N 04:40:03 10° N visible
08 Apr ? 04:19:17 10° NNE 04:19:18 10° NNE 04:19:18 10° NNE visible
09 Apr ? 04:58:00 10° N 04:58:13 11° N 04:58:13 11° N visible
11 Apr ? 04:37:05 10° N 04:37:26 12° N 04:37:26 12° N visible
